"Pseudo-MPEC" for P11Yb6Q

Created 2024 Sep 9 5:22:10 UT using Find_Orb

Click here for an explanation of pseudo-MPECs

 
 Astrometry: 
     P11Yb6Q* C2024 09 07.32893621 58 16.217+07 01 06.61   ~97Ab 20.85wXNEOCPF51
     P11Yb6Q  C2024 09 07.35300021 58 24.539+07 01 50.71   ~97Ab 20.86wXNEOCPF51
     P11Yb6Q  C2024 09 07.36502821 58 28.689+07 02 12.79   ~97Ab 21.13wXNEOCPF51
     P11Yb6Q 1C2024 09 07.79827 22 01 11.17 +07 14 34.9    ~97Jb 20.7 VXNEOCP033
     P11Yb6Q 1C2024 09 07.79992 22 01 11.75 +07 14 37.6    ~97Jb 20.7 VXNEOCP033
     P11Yb6Q 1C2024 09 07.80157 22 01 12.34 +07 14 40.0    ~97Jb 20.6 VXNEOCP033
     P11Yb6Q KB2024 09 07.83970722 01 26.63 +07 15 54.4    ~97Kq 20.8 GXNEOCPI93
     P11Yb6Q KB2024 09 07.84737222 01 29.29 +07 16 08.1    ~97Kq 20.6 GXNEOCPI93
     P11Yb6Q KB2024 09 07.85502422 01 31.99 +07 16 21.7    ~97Kq 20.5 GXNEOCPI93
     P11Yb6Q KC2024 09 07.87897622 01 39.54 +07 17 03.2    ~97Nq 20.4 GXNEOCP595
     P11Yb6Q KC2024 09 07.88315022 01 40.96 +07 17 11.5    ~97Lq 20.7 GVNEOCPL01
     P11Yb6Q KC2024 09 07.88609322 01 41.96 +07 17 16.4    ~97Lq 20.5 GVNEOCPL01
     P11Yb6Q KC2024 09 07.88973122 01 43.22 +07 17 23.3    ~97Lq 20.9 GVNEOCPL01
     P11Yb6Q KC2024 09 07.91016722 01 50.28 +07 17 58.8    ~97Nq 20.6 GXNEOCP595
     P11Yb6Q KC2024 09 07.94130222 02 01.08 +07 18 53.4    ~97Nq 20.7 GXNEOCP595
     P11Yb6Q |C2024 09 08.03133022 02 37.620+07 22 57.60   ~981b 20.9 GVNEOCP807
     P11Yb6Q |C2024 09 08.03677022 02 39.490+07 23 07.50   ~981b 20.8 GVNEOCP807
     P11Yb6Q |C2024 09 08.03941222 02 40.410+07 23 12.20   ~981b 20.9 GVNEOCP807
     P11Yb6Q KC2024 09 08.17298022 03 27.08 +07 25 42.1    ~984b 21.1 GVNEOCPH21
     P11Yb6Q KC2024 09 08.17577622 03 28.04 +07 25 46.8    ~984b 20.7 GVNEOCPH21
     P11Yb6Q KC2024 09 08.17857222 03 29.00 +07 25 52.1    ~984b 20.6 GVNEOCPH21

Station data:
(033) Karl Schwarzschild Observatory, Tautenburg  (N50.980139 E11.711240)
   Germany.  Observer B. Stecklum. 1.34-m f/3 Schmidt + CCD.
(595) Farra d'Isonzo  (N45.915731 E13.525780)  Italy.  Observers S. Aschi, E.
   Pettarin, G. Panterotto. Measurers S. Aschi, E. Pettarin. 0.40-m f/5.15
   reflector + CCD.
(807) Cerro Tololo Observatory, La Serena  (S30.169133 W70.805900)  Chile.
   Observer R. Holmes. 0.61-m f/6.5 astrograph + CCD.
(F51) Pan-STARRS 1, Haleakala  (N20.707234 W156.255910)  US/Hawaii.
   Observers J. Bulger, T. Lowe, A. Schultz, M. Willman. Measurers K.
   Chambers, S. Chastel, T. de Boer, L. Denneau, J. Fairlamb, H. Flewelling,
   M. Huber, C.-C. Lin, E. Magnier, Y. Ramanjooloo, R. Wainscoat, R. Weryk.
   1.8-m Ritchey-Chrétien + CCD.
(H21) Astronomical Research Observatory, Westfield  (N39.483054 W87.968270)
   US/Illinois.  Observer R. Holmes. Measurers S. Foglia, L. Buzzi, T.
   Linder, R. Holmes. 0.76-m f/3.0 astrograph + CCD0.81-m f/4.0 astrograph +
   CCD0.61-m f/4.5 astrograph + CCD0.40-m f/5.32 astrograph + CCD.
(I93) St Pardon de Conques  (N44.558670 W0.202960)  France.  Observers F.
   Losse, W. D'Anna. Measurer F. Losse. 0.40-m f/3.7 reflector + CCD.
(L01) Višnjan Observatory, Tičan  (N45.290897 E13.749300)  Croatia.
   Observers K. Korlević, D. Pujagic, V. Dobos. Measurers D. Pujagic, K.
   Korlević. 1.0-m f/2.9 reflector + CCD.

Orbital elements:  P11Yb6Q
   Perihelion 2024 Aug 21.06509 +/- 0.212 TT =  1:33:44 (JD 2460543.56509)
Epoch 2024 Sep  8.0 TT = JDT 2460561.5   Earth MOID: 0.0903   Ma: 0.0229
M   4.78412588 +/- 0.06             (J2000 ecliptic)             AutoNEOCP
n   0.26674943 +/- 0.00182          Peri.   35.97081 +/- 0.7
a   2.39001362 +/- 0.0109           Node   289.74154 +/- 0.47
e   0.5399991 +/- 0.00196           Incl.    2.33410 +/- 0.014
P   3.69488                H 24.34  G  0.15   U  8.5
q 1.09940824 +/- 0.000577    Q 3.68061899 +/- 0.0214
From 21 observations 2024 Sept. 7-8 (20.4 hr); mean residual 0".28
Residuals in arcseconds: 
240907 F51  .04+  .06+    240907 I93  .07+  .26+    240907 595  .43-  .46+    
240907 F51  .02-  .08-    240907 I93  .31+  .18+    240908 807  .28+  .38-    
240907 F51  .02-  .02-    240907 595  .23+  .22-    240908 807  .06+  .13-    
240907 033  .15+  .27+    240907 L01  .12-  .07+    240908 807  .15+  .11-    
240907 033  .07+  .01+    240907 L01  .41-  .23-    240908 H21  .04-  .15-    
240907 033  .14+  .55-    240907 L01  .42-  .24+    240908 H21  .05+  .29-    
240907 I93  .57+  .29+    240907 595  .81-  .38+    240908 H21  .15+  .18+    

Ephemerides (geocentric):
Date (UTC) HH   RA             Dec           delta  r     elong  mag " sig PA
---- --------  ------------   ------------  ------ ------ -----  --- --------
2024 09 09 05  22 09 38.116   +07 55 01.71  .12275 1.1232 159.8 21.0 .263  99
2024 09 09 06  22 09 52.816   +07 56 08.36  .12286 1.1233 159.8 21.0 .273  98
2024 09 09 07  22 10 07.496   +07 57 14.80  .12296 1.1234 159.8 21.0 .284  97
2024 09 09 08  22 10 22.156   +07 58 21.05  .12307 1.1235 159.9 21.0 .295  96
2024 09 09 09  22 10 36.796   +07 59 27.10  .12318 1.1236 159.9 21.0 .306  95
2024 09 09 10  22 10 51.416   +08 00 32.95  .12329 1.1237 159.9 21.0 .317  94
2024 09 09 11  22 11 06.016   +08 01 38.60  .12340 1.1238 159.9 21.0 .329  93
2024 09 09 12  22 11 20.596   +08 02 44.05  .12350 1.1239 159.9 21.0 .341  92
2024 09 09 13  22 11 35.156   +08 03 49.30  .12361 1.1240 159.9 21.0 .354  92
2024 09 09 14  22 11 49.696   +08 04 54.35  .12372 1.1241 160.0 21.0 .367  91
2024 09 09 15  22 12 04.217   +08 05 59.20  .12383 1.1242 160.0 21.0 .380  90
2024 09 09 16  22 12 18.717   +08 07 03.86  .12394 1.1243 160.0 21.0 .393  90
2024 09 09 17  22 12 33.197   +08 08 08.32  .12405 1.1244 160.0 21.0 .407  89
2024 09 09 18  22 12 47.657   +08 09 12.58  .12416 1.1246 160.0 21.0 .420  88
2024 09 09 19  22 13 02.097   +08 10 16.64  .12427 1.1247 160.0 21.0 .435  88
2024 09 09 20  22 13 16.518   +08 11 20.51  .12438 1.1248 160.1 21.0 .449  87
2024 09 09 21  22 13 30.918   +08 12 24.18  .12449 1.1249 160.1 21.0 .464  87
2024 09 09 22  22 13 45.298   +08 13 27.65  .12461 1.1250 160.1 21.0 .479  86
2024 09 09 23  22 13 59.658   +08 14 30.92  .12472 1.1251 160.1 21.0 .494  86
2024 09 10 00  22 14 13.998   +08 15 34.00  .12483 1.1252 160.1 21.0 .510  85
2024 09 10 01  22 14 28.318   +08 16 36.89  .12494 1.1253 160.1 21.0 .525  85
2024 09 10 02  22 14 42.618   +08 17 39.58  .12505 1.1254 160.1 21.0 .542  84
2024 09 10 03  22 14 56.898   +08 18 42.07  .12517 1.1255 160.2 21.0 .558  84
2024 09 10 04  22 15 11.158   +08 19 44.37  .12528 1.1256 160.2 21.0 .575  83
2024 09 10 05  22 15 25.398   +08 20 46.47  .12539 1.1257 160.2 21.0 .591  83
2024 09 10 06  22 15 39.618   +08 21 48.38  .12550 1.1258 160.2 21.0 .609  83
2024 09 10 07  22 15 53.817   +08 22 50.09  .12562 1.1259 160.2 21.0 .626  82
2024 09 10 08  22 16 07.997   +08 23 51.61  .12573 1.1260 160.2 21.0 .644  82
2024 09 10 09  22 16 22.157   +08 24 52.94  .12584 1.1261 160.3 21.0 .661  82
2024 09 10 10  22 16 36.296   +08 25 54.07  .12596 1.1263 160.3 21.0 .680  81
2024 09 10 11  22 16 50.416   +08 26 55.01  .12607 1.1264 160.3 21.0 .698  81
2024 09 10 12  22 17 04.515   +08 27 55.75  .12619 1.1265 160.3 21.0 .717  81
2024 09 10 13  22 17 18.595   +08 28 56.31  .12630 1.1266 160.3 21.0 .735  81
2024 09 10 14  22 17 32.654   +08 29 56.67  .12642 1.1267 160.3 21.0 .755  80
2024 09 10 15  22 17 46.693   +08 30 56.84  .12653 1.1268 160.3 21.0 .774  80
2024 09 10 16  22 18 00.712   +08 31 56.81  .12665 1.1269 160.4 21.0 .794  80
2024 09 10 17  22 18 14.711   +08 32 56.60  .12676 1.1270 160.4 21.0 .813  79
2024 09 10 18  22 18 28.690   +08 33 56.19  .12688 1.1271 160.4 21.0 .833  79
2024 09 10 19  22 18 42.649   +08 34 55.59  .12700 1.1272 160.4 21.0 .854  79
2024 09 10 20  22 18 56.588   +08 35 54.80  .12711 1.1273 160.4 21.0 .874  79
2024 09 10 21  22 19 10.507   +08 36 53.82  .12723 1.1274 160.4 21.0 .895  79
2024 09 10 22  22 19 24.406   +08 37 52.65  .12734 1.1276 160.4 21.0 .916  78
2024 09 10 23  22 19 38.284   +08 38 51.29  .12746 1.1277 160.5 21.0 .937  78
2024 09 11 00  22 19 52.143   +08 39 49.74  .12758 1.1278 160.5 21.0 .959  78
2024 09 11 01  22 20 05.981   +08 40 48.01  .12770 1.1279 160.5 21.0 .980  78
2024 09 11 02  22 20 19.800   +08 41 46.08  .12781 1.1280 160.5 21.0 1.00  78
2024 09 11 03  22 20 33.598   +08 42 43.96  .12793 1.1281 160.5 21.0 1.02  77
2024 09 11 04  22 20 47.376   +08 43 41.65  .12805 1.1282 160.5 21.0 1.05  77